Lid_Strength_Index
6 5 5 5 5 3 7 1 2 1 1 1 2 2 2 1 0 -0 -1 -1 -1 -1 -0 -0 -0 -0 0 0 -0 0 1 1 1 1 1 1 1 1 1 2 2 1 0
7 6 6 5 6 4 3 2 2 1 1 1 1 1 1 1 1 -0 -0 -1 -1 -1 -0 -0 -0 -0 0 0 0 0 1 1 2 2 2 4 2 2 2 2 3 2 1
7 6 6 6 6 3 2 2 2 1 1 1 1 1 1 2 1 1 0 -0 -1 -1 -0 -1 -0 -0 -0 0 0 0 1 2 2 1 2 5 5 4 2 2 2 3 2
6 6 7 6 6 3 2 2 1 1 1 1 1 2 2 3 1 1 0 -0 -1 -0 -0 0 0 -0 -0 0 0 1 1 1 2 2 2 2 2 4 5 3 3 3 3
6 6 6 6 4 3 2 2 1 1 1 1 1 2 2 2 1 1 1 1 0 0 1 1 1 1 1 1 1 1 2 1 2 2 2 2 2 2 4 5 4 3 5
6 6 6 6 3 2 2 2 2 2 1 2 1 2 3 2 2 2 2 1 1 1 0 1 1 1 1 1 1 1 1 1 1 1 1 2 3 3 4 5 4 4 4
7 6 7 5 4 4 3 4 3 2 2 1 2 3 4 3 2 2 2 2 1 1 1 0 0 1 0 1 1 1 1 1 1 1 1 1 2 2 3 3 4 4 4
7 6 7 5 4 3 3 3 3 3 2 2 2 3 3 3 2 2 2 2 1 1 1 1 1 0 0 0 0 0 1 1 2 2 2 2 2 1 2 3 4 6 5
7 7 7 5 4 3 3 3 2 3 2 2 1 2 2 2 2 2 2 1 1 1 1 0 0 0 0 0 1 1 1 1 1 0 0 0 0 1 1 1 2 3 6
7 7 6 5 3 3 2 2 2 2 2 2 1 1 1 1 1 1 2 2 2 1 1 1 1 1 1 2 2 1 1 1 0 0 1 2 3 3 3 3 3 2 3
9 7 7 4 3 3 2 2 2 2 2 2 2 2 2 2 2 2 2 2 2 2 2 2 1 2 2 1 1 1 1 1 2 2 3 4 3 4 4 4 4 4 4
10 7 6 5 4 4 4 3 3 3 3 3 3 3 3 3 3 4 4 3 3 3 3 3 2 1 1 1 1 3 3 3 4 5 5 6 6 5 5 5 5 5 4
10 7 6 6 5 5 4 4 4 4 4 4 4 3 4 4 4 4 3 3 4 4 3 3 3 3 3 3 3 3 4 5 6 6 6 6 6 6 6 5 6 5 5
10 9 8 7 6 6 6 5 4 4 4 4 4 4 4 4 4 4 4 4 4 5 5 5 5 5 5 6 6 6 6 7 7 7 7 7 7 7 6 6 6 6 5
9 9 9 8 8 7 7 7 6 5 5 5 5 6 5 5 6 6 6 6 6 6 6 7 7 7 7 8 7 7 7 7 7 8 8 8 8 7 6 6 6 6 7
9 9 9 8 8 8 8 8 7 7 6 6 6 7 7 7 7 7 8 7 7 7 7 8 8 7 7 7 7 8 9 9 9 9 9 8 8 8 6 7 7 7 7
8 8 9 8 8 8 8 8 8 7 7 7 8 7 7 8 8 8 8 8 8 8 8 8 8 8 8 8 8 8 10 11 10 9 9 9 9 9 9 8 9 9 8
8 7 8 8 7 8 8 8 8 8 8 8 7 8 8 9 9 9 9 9 9 9 9 9 9 8 8 7 8 8 8 8 8 8 9 9 9 9 9 9 10 10 10
7 7 7 8 8 8 8 9 9 9 8 8 8 8 8 9 9 9 9 9 10 10 10 10 10 9 8 7 7 9 9 10 10 10 10 9 9 9 8 10 10 11 11
7 8 8 8 8 8 8 8 9 8 9 9 8 8 8 9 9 10 10 10 10 10 10 11 10 10 9 7 7 8 9 10 10 10 10 9 9 8 8 9 11 12 12
8 8 8 9 9 8 7 8 8 8 8 8 8 8 8 9 9 10 10 10 10 10 11 11 10 9 10 9 7 7 9 9 10 10 10 10 9 8 8 8 11 12 12
8 8 9 9 9 8 8 9 9 8 8 8 8 9 9 9 9 9 10 10 10 10 10 9 10 9 9 8 8 7 8 9 10 10 10 10 9 9 9 8 9 9 11
9 9 9 9 9 9 8 8 9 8 9 9 9 9 9 9 9 9 10 10 10 10 10 10 10 10 10 9 8 7 7 7 9 9 10 10 10 9 9 8 9 10 11
8 8 8 9 9 9 9 9 9 9 9 9 10 10 10 10 10 9 10 10 10 10 11 11 10 10 10 10 9 9 8 7 7 8 9 9 10 10 10 10 11 12 12
8 9 9 9 9 9 9 9 9 8 9 9 9 9 9 9 9 9 9 9 9 9 9 10 10 11 11 10 9 10 11 10 10 10 12 12 12 12 12 12 13 13 13
8 8 8 9 9 10 10 10 9 9 9 9 9 9 9 9 9 9 9 8 8 7 8 8 9 11 9 9 9 8 8 8 8 10 12 12 12 12 12 13 13 13 13